Regional Weather Roundup
Issued by NWS

Home | Current Version | Previous Version | Graphics & Text | Print | Product List | Glossary On
Versions: 1 2 3 4 5 6 7 8 9 10 11 12 13 14 15 16 17 18 19 20 21 22 23 24 25 26 27 28 29 30 31 32 33 34 35 36 37 38 39 40 41 42 43 44 45 46 47 48 49 50
000
ASUS43 KLMK 272110
RWRKY
KENTUCKY REGIONAL WEATHER ROUNDUP
NATIONAL WEATHER SERVICE LOUISVILLE KY
400 PM EST MON FEB 27 2017

NOTE "FAIR" INDICATES FEW OR NO CLOUDS BELOW 12,000 FEET
WITH NO SIGNIFICANT WEATHER AND/OR OBSTRUCTIONS TO VISIBILITY.

KYZ001>023-026-027-061>063-070>075-272200-
WESTERN AND SOUTH CENTRAL KENTUCKY

CITY           SKY/WX    TMP DP  RH WIND       PRES   REMARKS
PADUCAH        MOSUNNY   65  46  50 SW9G20    30.08F
HENDERSON      CLOUDY    59  43  55 S6        30.10F
OWENSBORO      CLOUDY    61  44  53 S9        30.12F
HOPKINSVILLE   SUNNY     65  44  46 S10       30.11F
BOWLING GREEN  MOSUNNY   62  41  46 S15       30.15F
GLASGOW        PTSUNNY   60  40  47 SW9       30.16S
$$

KYZ024-025-028>034-038-045-046-053-272200-
NORTH CENTRAL KENTUCKY

CITY           SKY/WX    TMP DP  RH WIND       PRES   REMARKS
LOUISVILLE/SDF PTSUNNY   58  38  47 S7        30.16F
LOUISVILLE/LOU PTSUNNY   56  39  53 S6        30.17F
FORT KNOX      PTSUNNY   59  40  49 S10       30.13F
$$

KYZ035>037-039>044-047>052-055>060-089>105-272200-
NORTHEAST KENTUCKY

CITY           SKY/WX    TMP DP  RH WIND       PRES   REMARKS
LEXINGTON      CLOUDY    56  36  47 SE6       30.18F
COVINGTON      CLOUDY    49  45  86 S8        30.19F
FRANKFORT      CLOUDY    54  36  50 S5        30.17F
$$

KYZ054-064>069-076>088-106>120-272200-
SOUTHEAST KENTUCKY

CITY           SKY/WX    TMP DP  RH WIND       PRES   REMARKS
JACKSON        CLOUDY    54  29  38 VRB5      30.22S
LONDON         CLOUDY    53  33  46 S7        30.21S
SOMERSET       CLOUDY    52  36  54 S13G18    30.22S
MIDDLESBORO    CLOUDY    52  34  50 S5        30.23F
MONTICELLO     CLOUDY    56  41  57 S8G20     30.21S
$$





USA.gov is the U.S. government's official web portal to all federal, state and local government web resources and services.